World > North America > United States > Texas > Walkers Mill

Hourly Walkers Mill, TX Regional Weather

Feedback E-mail the Weather

Quick WX

Walkers Mill, TX Weather Maps

°F °C°F °C
Walkers Mill Weather Map
UTC Time: 8/13/2022, 07:10
Your Time:

Walkers Mill, TX Regional Weather

Expires:202208130800;;011322
ASUS44 KFWD 130710
RWRTX 
NORTH TEXAS HOURLY WEATHER ROUNDUP
NATIONAL WEATHER SERVICE FORT WORTH TX
200 AM CDT SAT AUG 13 2022

NOTE: "FAIR" INDICATES FEW OR NO CLOUDS BELOW 12,000 FEET WITH NO
SIGNIFICANT WEATHER AND/OR OBSTRUCTIONS TO VISIBILITY.


TXZ095>097-106>112-122>126-135>138-148>153-164>167-130800-
EAST TEXAS
  
CITY           SKY/WX    TMP DP  RH WIND       PRES   REMARKS
PARIS          FAIR      78  70  76 E5        30.05S                  
SULPHUR SPRNGS FAIR      80  71  72 E6        30.05F                  
MOUNT PLEASANT FAIR      79  71  74 E7        30.03S                  
GILMER         FAIR      78  72  83 CALM      30.03S                  
MINEOLA        FAIR      77  72  83 CALM      30.03R                  
TYLER          FAIR      82  72  71 E5        30.01F                  
LONGVIEW       FAIR      79  73  82 NE3       30.01S                  
MARSHALL       FAIR      75  72  89 N3        30.04S                  
ATHENS         FAIR      81  70  69 CALM      29.99F                  
PALESTINE      FAIR      81  72  74 E5        29.98F                  
JACKSONVILLE   FAIR      79  72  79 E5        30.03F                  
HENDERSON      FAIR      83  69  62 NE3       30.02F                  
CENTER         MOCLDY    81  73  78 CALM      30.01                   
NACOGDOCHES    FAIR      78  75  90 CALM      30.00S                  
LUFKIN         FAIR      80  72  76 CALM      29.98S                  
$$

SUPPLEMENTAL OBSERVATIONS (NWS FORT WORTH AREA)
  
CITY           SKY/WX    TMP DP  RH WIND       PRES   REMARKS
CADDO GRASSLND   N/A     81  68  65 SE1         N/A                   
LBJ GRASSLAND    N/A     82  68  61 E6          N/A                   
POSSUM KINGDOM   N/A     81  68  65 E2          N/A                   
GRANBURY         N/A     84  66  54 SE5         N/A                   
MCGREGOR         N/A     81  68  65 W1          N/A                   
TEMPLE           N/A     81  70  69 S2          N/A                   
PALESTINE        N/A     77  70  78 N1          N/A                   
$$

SUPPLEMENTAL OBSERVATIONS (NWS NORMAN AREA)
  
CITY           SKY/WX    TMP DP  RH WIND       PRES   REMARKS
GOODLETT         N/A     79  59  50 SE8       30.09                   
ODELL            N/A     81  62  51 SE8       30.09S                  
CROWELL          N/A     80  60  50 CALM      30.09S                  
KNOX CITY        N/A     77  59  53 CALM      30.07                   
SEYMOUR          N/A     77  66  67 CALM      30.06F                  
MILLERS CREEK    N/A     79  61  53 CALM        N/A                   
$$

SUPPLEMENTAL OBSERVATIONS (NWS SAN ANGELO AREA)
  
CITY           SKY/WX    TMP DP  RH WIND       PRES   REMARKS
WEINERT          N/A     79  61  54 E3        30.08S                  
HASKELL          N/A     80  62  54 E5        30.07                   
THROCKMORTON     N/A     77  64  63 CALM      30.06                   
STAMFORD         N/A     78  62  56 SE3       30.08                   
CLYDE            N/A     80  64  59 E6        30.11F                  
HAMBY            N/A     79  61  53 E5          N/A                   
$$

SUPPLEMENTAL OBSERVATIONS (NWS SHREVEPORT AREA)
  
CITY           SKY/WX    TMP DP  RH WIND       PRES   REMARKS
TEXARKANA        N/A     75  70  83 NE1         N/A                   
LUFKIN           N/A     79  72  78 MISG        N/A                   
N SABINE NF      N/A     79  73  83 MISG        N/A                   
$$

SUPPLEMENTAL OBSERVATIONS ARE A COLLECTION OF AUTOMATED INSTRUMENTS
THAT ARE MAINTAINED BY A VARIETY OF FEDERAL AND STATE AGENCIES. 
CERTAIN ELEMENTS...SUCH AS HUMIDITY VALUES AND SUSTAINED WIND 
SPEEDS...MAY BE APPROXIMATED.

  

SKY/WX - Weather  TMP - Temperature  DP - Dew Point  RH - Humidity
WIND - Wind Direction/Speed PRES - Barometric Pressure VSB - Visibility
WCI - Wind Chill Index E13G22 Wind - East Wind 13 mph/Gusts of 22 mph

Trending Headlines

Walkers Mill Radar Loop



Walkers Mill Quick Facts


National Two Day Weather Forecast


E-mail the Walkers Mill Weather Forecast

Voice your opinion or tell us about page issues...